Location: Pedholt
(56.0260°N, 10.2097°E)
Time: 07:25:57
(UTC+00:00)

Vanguard 3 - Pass Details

Date: 08 August 2021
Orbit: 510 x 3260 km, 33.4° (Epoch: 26 September)

Event Time Altitude Azimuth Distance (km) Brightness Sun altitude
Rises 20:20:46 0° 263° (W) 6,117 12.2 -8.4°
Reaches altitude 10° 20:25:58 10° 249° (WSW) 5,498 11.7 -8.9°
Maximum altitude 20:37:06 21° 209° (SSW) 5,136 11.0 -10.0°
Drops below altitude 10° 20:49:33 10° 170° (S) 6,177 11.1 -11.1°
Enters shadow 20:51:29 - 165° (SSE) 6,424 11.1 -11.2°
